Location: Beadle
(51.4667°N, 109.0000°W)
Time: 18:19:58
(UTC+00:00)

O/OREOS (USA 219) - Pass Details

Date: 02 July 2022
Orbit: 621 x 646 km, 72.0° (Epoch: 22 May)

Event Time Altitude Azimuth Distance (km) Brightness Sun altitude
Rises 07:33:42 0° 328° (NNW) 2,966 ? -15.4°
Reaches altitude 10° 07:36:00 10° 325° (NW) 2,054 ? -15.4°
Maximum altitude 07:40:31 56° 248° (WSW) 773 ? -15.4°
Enters shadow 07:42:53 26° 180° (S) 1,258 ? -15.3°
